Weather History for Sheridan, WY

Change the Weather History Date:

Tuesday, March 25, 2014

  Actual Average Record
Temperature  
Mean Temperature 37 °F 38 °F  
Max Temperature 56 °F 51 °F 77 °F (2007)
Min Temperature 18 °F 25 °F -23 °F (1965)
Degree Days  
Heating Degree Days 28 27  
Month to date heating degree days 832 768  
Since 1 July heating degree days 6582 6303  
Cooling Degree Days 0 0  
Month to date cooling degree days 0 0  
Year to date cooling degree days 0 0  
Moisture  
Dew Point 22 °F    
Average Humidity 61    
Maximum Humidity 84    
Minimum Humidity 38    
Precipitation  
Precipitation 0.00 in 0.03 in 0.62 in (1977)
Month to date precipitation 1.17 0.74  
Year to date precipitation 3.02 1.84  
Sea Level Pressure  
Sea Level Pressure 30.00 in    
Wind  
Wind Speed 4 mph (ESE)    
Max Wind Speed 12 mph    
Max Gust Speed 15 mph    
Visibility 10 miles    
Events      
T = Trace of Precipitation, MM = Missing Value Source: NWS Daily Summary

Daily Weather History Graph

Daily Weather History Graph

Search for Another Location

Airport:

Trip Planner

Search our weather history database for the weather conditions in past years. The results will help you decide how hot, cold, wet, or windy it might be!

Date:

Astronomy

Mar. 25, 2014 Rise Set
Actual Time 7:01 AM MDT 7:26 PM MDT
Civil Twilight 6:32 AM MDT 7:56 PM MDT
Nautical Twilight 5:57 AM MDT 8:30 PM MDT
Astronomical Twilight 5:22 AM MDT 9:06 PM MDT
Moon 3:38 AM MDT (3/25) 1:48 PM MDT (3/25)
Length of Visible Light 13h 23m
Length of Day
12h 25m
Waning Crescent, 31% of the Moon is Illuminated
Mar 25
Waning Crescent
Mar 30
New
Apr 7
First Quarter
Apr 15
Full
Apr 22
Last Quarter

Hourly Weather History & Observations

Time (MDT) Temp. Windchill Dew Point Humidity Pressure Visibility Wind Dir Wind Speed Gust Speed Precip Events Conditions
12:53 AM 23.0 °F 18.4 °F 16.0 °F 74% 30.45 in 10.0 mi West 3.5 mph - N/A   Overcast
1:53 AM 24.1 °F - 16.0 °F 71% 30.41 in 10.0 mi Calm Calm - N/A   Overcast
2:53 AM 24.1 °F 19.7 °F 16.0 °F 71% 30.37 in 10.0 mi ESE 3.5 mph - N/A   Overcast
3:53 AM 23.0 °F 15.8 °F 16.0 °F 74% 30.34 in 10.0 mi East 5.8 mph - N/A   Scattered Clouds
4:17 AM 21.9 °F 13.4 °F 16.0 °F 78% 30.18 in 10.0 mi East 6.9 mph - N/A   Mostly Cloudy
4:53 AM 23.0 °F 17.0 °F 16.0 °F 74% 30.31 in 10.0 mi East 4.6 mph - N/A   Overcast
5:19 AM 19.9 °F 12.1 °F 15.1 °F 81% 30.16 in 10.0 mi SSE 5.8 mph - N/A   Scattered Clouds
5:53 AM 19.9 °F 13.4 °F 15.1 °F 81% 30.29 in 10.0 mi SSE 4.6 mph - N/A   Overcast
6:53 AM 18.0 °F - 14.0 °F 84% 30.25 in 10.0 mi Calm Calm - N/A   Clear
7:53 AM 19.9 °F 12.1 °F 16.0 °F 85% 30.22 in 10.0 mi NW 5.8 mph - N/A   Clear
8:53 AM 24.1 °F 19.7 °F 18.0 °F 77% 30.18 in 10.0 mi SW 3.5 mph - N/A   Clear
9:53 AM 28.0 °F 24.2 °F 19.0 °F 69% 30.14 in 10.0 mi Variable 3.5 mph - N/A   Clear
10:53 AM 33.1 °F 27.7 °F 21.9 °F 64% 30.08 in 10.0 mi East 5.8 mph - N/A   Clear
11:53 AM 36.0 °F 33.3 °F 24.1 °F 62% 30.03 in 10.0 mi SSW 3.5 mph - N/A   Clear
12:53 PM 41.0 °F 39.0 °F 26.1 °F 55% 29.97 in 10.0 mi Variable 3.5 mph - N/A   Clear
1:53 PM 43.0 °F 41.3 °F 26.1 °F 51% 29.92 in 10.0 mi Variable 3.5 mph - N/A   Clear
2:53 PM 48.0 °F - 28.0 °F 46% 29.86 in 10.0 mi East 3.5 mph - N/A   Clear
3:53 PM 50.0 °F - 30.0 °F 46% 29.82 in 10.0 mi Calm Calm - N/A   Clear
4:53 PM 54.0 °F - 30.9 °F 41% 29.77 in 10.0 mi Variable 3.5 mph - N/A   Clear
5:53 PM 54.0 °F - 28.9 °F 38% 29.75 in 10.0 mi ESE 5.8 mph - N/A   Clear
6:53 PM 48.0 °F - 33.1 °F 56% 29.73 in 10.0 mi East 4.6 mph - N/A   Clear
7:53 PM 37.9 °F - 30.0 °F 73% 29.72 in 10.0 mi Calm Calm - N/A   Clear
8:53 PM 39.0 °F - 28.9 °F 67% 29.68 in 10.0 mi Calm Calm - N/A   Clear
9:53 PM 44.1 °F 40.8 °F 26.1 °F 49% 29.64 in 10.0 mi SE 5.8 mph - N/A   Clear
10:53 PM 34.0 °F 27.2 °F 25.0 °F 70% 29.63 in 10.0 mi SSW 8.1 mph - N/A   Clear
11:53 PM 36.0 °F 32.1 °F 24.1 °F 62% 29.59 in 10.0 mi NE 4.6 mph - N/A   Clear